Starlink 31732

operational
NORAD ID: 60099 Int'l Des: 2024-117 Owner: SPXS Country: US Constellation: starlink
LEOCIRCULAR

About Starlink 31732

Description loading...

Live Position

Loading 3D Globe...

Upcoming Passes

Altitude History

Altitude vs Time

uPlot chart will show altitude changes over time

Two-Line Element Set

1 60099U 24117J 25349.64148938 .00007595 00000-0 26836-3 0 9999
2 60099 53.1608 67.1398 0001063 99.8637 260.2484 15.30190218 84025
Epoch: Dec 15, 2025 • Age: 26 hours

Current Status

Altitude 492.4 km
Velocity 7.62 km/s
Sub-Earth Point -48.02°S, 14.31°E
Launch Date Jun 23, 2024
Age 1.4 years
Type internet

Technical Details

Classification Payload
Mass 730.00 kg
Dry Mass 700.00 kg
Total Mass 730.00 kg
Length 0.30 m
Diameter 4.10 m
Span 29.00 m
Shape Box + pan
Manufacturer SPXS
Bus Type Starlink V2M
Phase Status In Orbit
Owner/State SPXS/US

Large Constellations

Loading constellations...